Location: Newark
(48.5156°N, 1.8989°W)
Time: 05:53:47
(UTC+00:00)

Vanguard 1 Rocket - Visible Passes

Search period start: 15 November 2019 00:00
Search period end: 25 November 2019 00:00
Orbit: 651 x 4225 km, 34.3° (Epoch: 14 November)

Date Brightness Start Highest point End Pass type
(mag) Time Alt. Az. Time Alt. Az. Time Alt. Az.
15 Nov 9.4 04:11:41 10° SSE 04:12:26 11° SSE 04:13:41 10° SE visible
15 Nov 9.3 06:31:50 10° SW 06:36:07 23° S 06:42:18 10° SE visible
16 Nov 9.1 05:22:09 10° SSW 05:25:31 18° SSE 05:29:47 10° ESE visible
17 Nov 9.2 04:14:52 13° SSE 04:15:03 13° SSE 04:17:15 10° SE visible
17 Nov 9.3 06:34:52 10° SW 06:38:53 21° S 06:44:26 10° SE visible
18 Nov 9.0 05:25:05 10° SW 05:28:14 18° S 05:32:18 10° SE visible
19 Nov 9.1 04:18:01 14° SSE 04:18:01 14° SSE 04:20:20 10° SE visible
19 Nov 9.3 06:38:05 10° SW 06:41:40 18° S 06:46:22 10° SE visible
20 Nov 9.0 05:28:13 11° SW 05:31:00 17° S 05:34:41 10° SE visible
21 Nov 9.1 04:21:06 14° SSE 04:21:06 14° SSE 04:23:10 10° SE visible
21 Nov 9.3 06:41:34 10° SW 06:44:28 15° S 06:48:01 10° SSE visible
22 Nov 9.0 05:31:18 11° SW 05:33:46 15° S 05:36:52 10° SSE visible
23 Nov 9.1 04:24:12 14° SSE 04:24:12 14° SSE 04:25:50 10° SE visible
23 Nov 9.5 06:45:50 10° SSW 06:47:15 11° SSW 06:48:48 10° S visible
24 Nov 9.0 05:34:32 10° SW 05:36:31 13° S 05:38:43 10° SSE visible
